Hourly Data Report for November 20, 2005

TORONTO CITY
ONTARIO

43°40'00.000" N
79°24'00.000" W
112.50 m
6158355
71508
XTO

Download Data

Hourly Data (November 2005)
Hourly Data Report for November 20, 2005
TIME
LST
Temp Definition
°C
Dew Point Definition
°C
Rel Hum Definition
%
Precip. Amount Definition
mm

Wind Dir Definition
10's deg

Wind Spd Definition
km/h
Visibility Definition
km
Stn Press Definition
kPa
Hmdx Definition


Wind Chill Definition


Weather Definition


00:00 6.7 1.7 70   LegendMM LegendMM   100.45     LegendNANA
01:00 6.3 1.6 72   LegendMM LegendMM   100.44     LegendNANA
02:00 5.6 2.2 79   LegendMM LegendMM   100.44     LegendNANA
03:00 5.3 2.7 83   LegendMM LegendMM   100.47     LegendNANA
04:00 5.3 1.1 74   LegendMM LegendMM   100.47     LegendNANA
05:00 5.5 -0.1 67   LegendMM LegendMM   100.46     LegendNANA
06:00 5.2 -0.4 67   LegendMM LegendMM   100.46     LegendNANA
07:00 4.7 -0.8 67   LegendMM LegendMM   100.48     LegendNANA
08:00 4.7 -0.5 69   LegendMM LegendMM   100.49     LegendNANA
09:00 5.9 0.0 66   LegendMM LegendMM   100.51     LegendNANA
10:00 7.2 1.3 66   LegendMM LegendMM   100.47     LegendNANA
11:00 8.6 1.6 61   LegendMM LegendMM   100.48     LegendNANA
12:00 9.4 2.6 62   LegendMM LegendMM   100.43     LegendNANA
13:00 9.9 2.6 60   LegendMM LegendMM   100.39     LegendNANA
14:00 10.0 2.6 60   LegendMM LegendMM   100.31     LegendNANA
15:00 10.6 2.5 57   LegendMM LegendMM   100.27     LegendNANA
16:00 10.7 2.5 57   LegendMM LegendMM   100.26     LegendNANA
17:00 10.2 2.8 60   LegendMM LegendMM   100.26     LegendNANA
18:00 9.7 2.9 63   LegendMM LegendMM   100.25     LegendNANA
19:00 8.7 3.8 71   LegendMM LegendMM   100.23     LegendNANA
20:00 8.1 3.7 74   LegendMM LegendMM   100.22     LegendNANA
21:00 7.8 3.2 73   LegendMM LegendMM   100.18     LegendNANA
22:00 7.5 2.8 72   LegendMM LegendMM   100.15     LegendNANA
23:00 7.2 2.5 72   LegendMM LegendMM   100.08     LegendNANA

Notes on Data Quality.

Legend

  • E = Estimated
  • M = Missing
  • NA = Not Available*
  • [empty] = Indicates an unobserved value
Date modified: